Flag Weather past 2 weeks in Edmonton, Alberta, Canada

Now
36 °F

Low clouds.


Feels Like: 27 °F
Forecast: 22 / 33 °F
Wind: 12 mph from Southeast

Location: Edmonton Municipal

Current Time: Nov 22, 2014 at 2:06:42 AM

Latest Report: Nov 22, 2014 at 1:00 AM


Visibility: 9 mi

Pressure: 29.28 "Hg

Humidity: 87%

Dew point: 32 °F

Location of EdmontonLocation

Historic Weather in Edmonton — Graph

°F

Edmonton temperature yesterday

Maximum temperature yesterday: 43 °F (at 1:00 PM)
Minimum temperature yesterday: 36 °F (at 5:00 PM)
Average temperature yesterday: 38 °F

Past Weeks' High & Low Weather Summary

 TemperatureHumidityPressure
High43 °F (Nov 21, 1:00 PM)100% (Nov 12, 5:00 AM)30.93 "Hg (Nov 12, 5:00 AM)
Low-6 °F (Nov 14, 2:00 AM)55% (Nov 15, 6:00 PM)29.28 "Hg (Nov 22, 1:00 AM)
Average17 °F78%30.30 "Hg
* Reported Nov 7 1:00 AM — Nov 22 1:00 AM, Edmonton, Weather by CustomWeather, © 2014

Note: Actual official high and low records may vary slightly from our data, if they occured in-between our weather recording intervals... More about our weather records

Advertising

Edmonton weather history for previous 24 hours

 ConditionsComfort  
Time TempWeatherWind HumidityBarometerVisibility
1:00 AM
Nov 22
36 °FLow clouds.12 mph87%29.28 "Hg9 mi
12:00 AM36 °FLow clouds.17 mph87%29.31 "Hg9 mi
11:00 PM
Nov 21
36 °FLow clouds.15 mph93%29.35 "Hg9 mi
10:00 PM36 °FLow clouds.12 mph93%29.39 "Hg7 mi
9:00 PM36 °FLow clouds.10 mph93%29.41 "Hg7 mi
8:00 PM36 °FLow clouds.12 mph93%29.45 "Hg7 mi
7:00 PM36 °FLow clouds.8 mph93%29.49 "Hg4 mi
6:00 PM36 °FClear.7 mph87%29.53 "Hg5 mi
5:00 PM36 °FClear.7 mph93%29.55 "Hg9 mi
4:00 PM37 °FSunny.7 mph87%29.57 "Hg9 mi
3:00 PM39 °FPassing clouds.6 mph87%29.58 "Hg9 mi
2:00 PM39 °FScattered clouds.5 mph87%29.58 "Hg9 mi
1:00 PM43 °FPassing clouds.3 mph76%29.57 "Hg9 mi
12:00 PM41 °FPartly sunny.5 mph81%29.57 "Hg9 mi
11:00 AM41 °FOvercast.5 mph76%29.58 "Hg9 mi
10:00 AM39 °FOvercast.5 mph81%29.57 "Hg9 mi
9:00 AM39 °FMostly cloudy.5 mph81%29.56 "Hg9 mi
8:00 AM39 °FPassing clouds.5 mph81%29.56 "Hg9 mi
7:00 AM41 °FOvercast.5 mph76%29.55 "Hg9 mi
6:00 AM37 °FLight rain. Overcast.2 mph87%29.54 "Hg9 mi
5:00 AM39 °FLight rain. Overcast.6 mph87%29.54 "Hg9 mi
4:00 AM39 °FOvercast.7 mph87%29.54 "Hg9 mi
3:00 AM39 °FLight rain. Overcast.8 mph87%29.54 "Hg9 mi
2:00 AM41 °FLight rain. Mostly cloudy.13 mph81%29.55 "Hg9 mi
Weather by CustomWeather, © 2014

See weather overviewHow to use our weather pages